sat.trackr.live / text

‹ back to catalog

STARLINK-34585

NORAD 64779 · 2025-147AA

PAYLOAD ACTIVE UNKNOWN

§ Identity

Operator
Country
US
Launch date
2025-07-08
Launch site
AFETR
Launch vehicle
Mass (kg)
RCS (m²)

Purposes: comms

External: N2YO · Heavens-Above · Gunter

§ Orbital elements

Epoch: 2026-09-20T16:32:41.730432Z

Period
93.85 min
Inclination
53.1583°
Eccentricity
0.0003336
Mean motion
15.34417998 rev/d
Perigee alt
460.4 km
Apogee alt
464.9 km
Semi-major
6,840.8 km
B*
8.7823e-4
RAAN
52.9800°
Arg perigee
99.0159°
Mean anomaly
261.1221°
Rev number
6,861

§ Raw data

STARLINK-345851 64779U 25147AA  26263.68937188  .00029432  00000+0  87823-3 0  99912 64779  53.1583  52.9800 0003336  99.0159 261.1221 15.34417998 68619

JSON: /api/v1/satellites/64779 · /tle

For live sub-satellite position, see the globe view (requires WebGL).

§ Visibility from observer

Set your observer location to see the next 7 days of passes ≥ 10°. The values pass through the URL so the page stays shareable.

No JS? Fill the form by hand. The geolocation button needs JavaScript.